[[{"header":{"parameterUnit":"m.s-1","parameterCategory":1,"la1":30.2991,"la2":30.254,"lo1":-89.0895,"lo2":-89.0444,"dy":0.0017,"dx":0.0017,"nx":28,"ny":28,"refTime":"2025-11-16T03:00:00:Z","depth":0,"parameterNumber":2,"parameterNumberName":"U-component_of_WINDS"},"data":[0,0,0,0,0,0,0,0,0,0,0,0,0,0,0,0,0,0,0,0,0,0,0,0,0,0,0,0,0,0,0,0,0,0,0,0,0,0,0,0,0,0,0,0,0,0,0,0,0,0,0,0,0,0,0,0,0,0,-1.5098,-1.5098,0,-1.5022,-1.5021,-1.502,-1.4914,-1.4913,-1.4911,-1.4909,-1.4834,-1.4834,-1.4834,0,0,0,0,0,0,0,0,0,0,0,0,0,-1.5158,-1.5157,-1.5099,-1.5098,-1.5097,-1.5022,-1.5021,-1.502,-1.4915,-1.4913,-1.491,-1.4908,-1.4834,-1.4834,-1.4834,0,0,0,0,0,0,0,0,0,0,0,0,0,-1.5112,-1.5157,-1.5099,-1.5035,-1.5029,-1.5022,-1.5021,-1.502,-1.4915,-1.4913,-1.491,-1.4907,-1.4835,-1.4834,-1.4834,-1.4885,0,0,-1.4832,-1.4832,0,0,0,0,0,0,0,0,-1.5115,-1.511,-1.5045,-1.5039,-1.5032,-1.4975,-1.5014,-1.4975,-1.4916,-1.4958,-1.4909,-1.4906,-1.4883,-1.4879,-1.487,-1.4881,-1.4878,-1.4832,-1.4832,-1.4832,-1.4831,0,0,0,0,0,0,0,-1.5118,-1.5112,-1.5068,-1.5045,-1.5036,-1.5012,-1.5002,-1.5006,-1.4937,-1.4954,-1.4947,-1.4939,-1.4879,-1.4871,-1.4868,-1.4877,-1.4832,-1.4832,-1.4831,-1.4831,-1.4928,-1.4931,0,0,0,0,0,0,-1.513,-1.5116,-1.5071,-1.5066,-1.5067,-1.5013,-1.5002,-1.4996,-1.4937,-1.4925,-1.4941,-1.4934,-1.4873,-1.4869,-1.4865,-1.4923,-1.4832,-1.4831,-1.4831,-1.4926,-1.4929,-1.4932,0,0,0,0,0,0,-1.5132,-1.5127,-1.5074,-1.5089,-1.508,-1.5015,-1.5009,-1.4996,-1.4988,-1.4927,-1.4914,-1.4945,-1.4871,-1.4866,-1.4881,-1.4919,-1.4831,-1.483,-1.4922,-1.4927,-1.4931,-1.5038,0,0,0,0,0,0,-1.5134,-1.5128,-1.5146,-1.509,-1.508,-1.509,-1.5011,-1.4996,-1.4987,-1.4977,-1.4927,-1.4916,-1.4868,-1.4882,-1.488,-1.4917,-1.483,-1.4918,-1.4924,-1.4929,-1.5031,-1.5046,-1.5058,0,0,0,0,0,-1.5136,-1.5179,-1.5147,-1.5142,-1.51,-1.5092,-1.5087,-1.503,-1.499,-1.5008,-1.4969,-1.4918,-1.4915,-1.4885,-1.4882,-1.4918,-1.4916,-1.4923,-1.4929,-1.5025,-1.5043,-1.5058,0,0,0,0,0,0,-1.5242,-1.5171,-1.5134,-1.516,-1.5133,-1.5075,-1.5095,-1.505,-1.5034,-1.5026,-1.4957,-1.4946,-1.4971,-1.4946,-1.4914,-1.4966,-1.4908,-1.4914,-1.4982,-1.4998,-1.5012,-1.5018,-1.483,0,0,0,0,0,-1.5268,-1.5267,-1.5205,-1.5234,-1.5222,-1.5162,-1.5156,-1.5114,-1.5084,-1.5072,-1.5034,-1.5008,-1.5001,-1.4998,-1.4988,-1.5026,-1.5016,-1.505,-1.5064,-1.5076,-1.5083,-1.5104,-1.512,-1.4953,-1.4953,-1.4953,0,0,-1.5323,-1.5284,-1.5287,-1.5254,-1.5228,-1.523,-1.5153,-1.5157,-1.5158,-1.5073,-1.5086,-1.5057,-1.5023,-1.5051,-1.5062,-1.5031,-1.5126,-1.5084,-1.5093,-1.5094,-1.5112,-1.5128,-1.5142,-1.4958,-1.4957,-1.4956,0,0,-1.5423,-1.5392,-1.5414,-1.539,-1.5352,-1.5311,-1.5317,-1.5265,-1.5243,-1.5254,-1.5191,-1.5192,-1.5181,-1.516,-1.5148,-1.5243,-1.5197,-1.5242,-1.5314,-1.5336,-1.5349,-1.536,-1.5397,-1.541,-1.5248,-1.5249,-1.5249,0,-1.5496,-1.5495,-1.5432,-1.5441,-1.543,-1.5352,-1.5375,-1.5355,-1.5316,-1.5311,-1.5276,-1.5262,-1.5233,-1.5257,-1.528,-1.5272,-1.5278,-1.5248,-1.5352,-1.5362,-1.5372,-1.5406,-1.542,-1.5255,-1.5254,-1.5253,-1.5253,0,-1.5588,-1.5589,-1.5611,-1.5575,-1.5566,-1.5582,-1.5523,-1.5522,-1.5482,-1.5446,-1.546,-1.5423,-1.5405,-1.5407,-1.5368,-1.5426,-1.5409,-1.5364,-1.5304,-1.5395,-1.5426,-1.5439,-1.5263,-1.5261,-1.5259,-1.5258,0,0,-1.5754,-1.5683,-1.5693,-1.5677,-1.5629,-1.5629,-1.5643,-1.5625,-1.5627,-1.5602,-1.5614,-1.5607,-1.5566,-1.5553,-1.551,-1.5529,-1.561,-1.5482,-1.548,-1.551,-1.5676,-1.5712,-1.5728,-1.5578,-1.558,-1.5582,-1.568,0,-1.5847,-1.5866,-1.581,-1.5843,-1.5845,-1.5771,-1.5783,-1.5757,-1.5724,-1.5722,-1.5685,-1.5683,-1.5627,-1.5619,-1.5634,-1.5597,-1.5643,-1.5589,-1.5591,-1.5592,-1.5604,-1.5744,-1.5781,-1.5875,-1.5691,-1.5693,-1.5695,0,-1.5959,-1.5941,-1.5975,-1.5927,-1.5926,-1.5938,-1.5918,-1.5916,-1.5885,-1.586,-1.5846,-1.5797,-1.5809,-1.575,-1.5768,-1.5732,-1.573,-1.5712,-1.5714,-1.5714,-1.5651,-1.575,-1.5903,-1.5919,-1.5713,-1.5711,-1.571,0,-1.608,-1.6064,-1.6082,-1.6071,-1.6015,-1.6026,-1.6004,-1.597,-1.5964,-1.5947,-1.5942,-1.5928,-1.592,-1.5911,-1.586,-1.5821,-1.5885,-1.5821,-1.5867,-1.5868,-1.5885,-1.5885,-1.6043,-1.5879,-1.5879,-1.5879,-1.5879,0,-1.6192,-1.6216,-1.6137,-1.6149,-1.6174,-1.611,-1.6138,-1.6108,-1.608,-1.6086,-1.6021,-1.6029,-1.596,-1.5961,-1.5921,-1.5943,-1.5939,-1.5921,-1.5911,-1.5929,-1.5932,-1.5928,-1.5921,-1.5882,-1.5882,-1.5881,-1.588,0,-1.6332,-1.6279,-1.6296,-1.6242,-1.6229,-1.6251,-1.6206,-1.6216,-1.6179,-1.6188,-1.6186,-1.6129,-1.6127,-1.6074,-1.6061,-1.6034,-1.6074,-1.605,-1.6085,-1.6078,-1.6128,-1.6125,-1.629,-1.631,-1.6132,-1.6134,-1.6135,0,-1.6408,-1.6425,-1.6374,-1.6373,-1.6354,-1.6353,-1.6346,-1.6285,-1.6281,-1.6248,-1.6263,-1.6255,-1.6246,-1.6246,-1.6204,-1.6194,-1.6171,-1.623,-1.617,-1.6188,-1.6176,-1.6177,-1.618,-1.6244,-1.6246,-1.6248,-1.6249,0,-1.655,-1.6523,-1.6515,-1.65,-1.6494,-1.6478,-1.6459,-1.6462,-1.6395,-1.6394,-1.639,-1.6383,-1.637,-1.6364,-1.6347,-1.6326,-1.6278,-1.6269,-1.6279,-1.6299,-1.6319,-1.6312,-1.6123,-1.6266,-1.6264,-1.6263,-1.6262,-1.6261,-1.6662,-1.6675,-1.6641,-1.6636,-1.6614,-1.6598,-1.6606,-1.657,-1.6566,-1.655,-1.6513,-1.6517,-1.6488,-1.6459,-1.6442,-1.6445,-1.6416,-1.643,-1.6435,-1.644,-1.6451,-1.6317,-1.6442,-1.6441,-1.6441,-1.644,-1.644,0,-1.6803,-1.6778,-1.6773,-1.6748,-1.6745,-1.6698,-1.6675,-1.6675,-1.6679,-1.6655,-1.6647,-1.6645,-1.664,-1.6598,-1.6588,-1.6599,-1.6577,-1.6599,-1.6599,-1.6595,-1.6476,-1.647,-1.6617,-1.6617,-1.6617,-1.6617,-1.6617,-1.6617,-1.6876,-1.6896,-1.6866,-1.6876,-1.685,-1.6853,-1.6844,-1.683,-1.6811,-1.6811,-1.6806,-1.6778,-1.6748,-1.6736,-1.673,-1.6717,-1.6718,-1.6748,-1.673,-1.662,-1.6603,-1.6587,-1.658,-1.6748,-1.6748,-1.6848,-1.6849,-1.685]},{"header":{"parameterUnit":"m.s-1","parameterCategory":1,"la1":30.2991,"la2":30.254,"lo1":-89.0895,"lo2":-89.0444,"dy":0.0017,"dx":0.0017,"nx":28,"ny":28,"refTime":"2025-11-16T03:00:00:Z","depth":0,"parameterNumber":3,"parameterNumberName":"V-component_of_WINDS"},"data":[0,0,0,0,0,0,0,0,0,0,0,0,0,0,0,0,0,0,0,0,0,0,0,0,0,0,0,0,0,0,0,0,0,0,0,0,0,0,0,0,0,0,0,0,0,0,0,0,0,0,0,0,0,0,0,0,0,0,0.5277,0.5278,0,0.5338,0.5338,0.5339,0.5399,0.5399,0.54,0.5401,0.5461,0.5462,0.5462,0,0,0,0,0,0,0,0,0,0,0,0,0,0.5209,0.521,0.5277,0.5278,0.5278,0.5338,0.5338,0.5339,0.5398,0.5399,0.54,0.5401,0.546,0.5461,0.5462,0,0,0,0,0,0,0,0,0,0,0,0,0,0.5251,0.521,0.5277,0.5315,0.5319,0.5337,0.5339,0.534,0.5398,0.5399,0.5401,0.5402,0.546,0.5461,0.5463,0.5447,0,0,0.5467,0.5467,0,0,0,0,0,0,0,0,0.5248,0.5253,0.5309,0.5313,0.5317,0.5362,0.5337,0.5376,0.5398,0.5368,0.5401,0.5402,0.5427,0.5431,0.544,0.545,0.5453,0.5467,0.5467,0.5468,0.5468,0,0,0,0,0,0,0,0.5245,0.5251,0.5301,0.5309,0.5315,0.5328,0.5336,0.5344,0.539,0.5371,0.5375,0.5382,0.5429,0.5438,0.5441,0.5453,0.5467,0.5468,0.5469,0.5469,0.5452,0.5451,0,0,0,0,0,0,0.5237,0.5248,0.5299,0.5303,0.5285,0.5329,0.5337,0.5346,0.539,0.5398,0.5381,0.5384,0.5435,0.544,0.5444,0.5427,0.5468,0.5469,0.547,0.5453,0.5452,0.545,0,0,0,0,0,0,0.5235,0.5241,0.5297,0.5277,0.5285,0.5329,0.5339,0.5347,0.5356,0.5398,0.5406,0.5382,0.5436,0.5442,0.5446,0.543,0.547,0.5471,0.5455,0.5453,0.5451,0.5394,0,0,0,0,0,0,0.5233,0.524,0.5235,0.5276,0.5286,0.5298,0.5338,0.5347,0.5358,0.5364,0.5401,0.5408,0.5438,0.5443,0.5447,0.5432,0.5472,0.5456,0.5454,0.5452,0.5397,0.539,0.5384,0,0,0,0,0,0.5231,0.5217,0.5235,0.5241,0.5281,0.5297,0.5302,0.5338,0.5357,0.5352,0.5378,0.5407,0.5431,0.5443,0.5448,0.5433,0.5457,0.5455,0.5452,0.54,0.5392,0.5384,0,0,0,0,0,0,0.5173,0.5223,0.5243,0.5243,0.5265,0.5307,0.5302,0.5328,0.5345,0.5349,0.5392,0.5399,0.5397,0.5416,0.5429,0.542,0.5448,0.5446,0.5407,0.5399,0.5393,0.5388,0.5473,0,0,0,0,0,0.516,0.517,0.5213,0.5208,0.5218,0.5258,0.5266,0.5292,0.5316,0.5326,0.5353,0.5375,0.5388,0.5395,0.5409,0.5401,0.5408,0.5393,0.5386,0.5381,0.5378,0.5373,0.5366,0.5441,0.5441,0.5441,0,0,0.5133,0.5162,0.5166,0.5197,0.5217,0.5225,0.5266,0.5273,0.5278,0.5327,0.5332,0.5352,0.5379,0.5376,0.5376,0.5392,0.5359,0.5377,0.5372,0.5373,0.5369,0.5362,0.5355,0.5439,0.544,0.544,0,0,0.5089,0.5112,0.511,0.5129,0.516,0.5186,0.5185,0.5223,0.5239,0.5245,0.528,0.5288,0.5309,0.5326,0.5338,0.5298,0.5324,0.5302,0.5267,0.5261,0.5255,0.525,0.5234,0.5228,0.5299,0.5299,0.5299,0,0.5052,0.5066,0.5105,0.511,0.5121,0.5166,0.5163,0.518,0.5213,0.5219,0.5237,0.5263,0.5285,0.5285,0.5276,0.5284,0.5283,0.5297,0.5253,0.5249,0.5244,0.5229,0.5223,0.5296,0.5296,0.5297,0.5297,0,0.5018,0.5027,0.5021,0.5052,0.5063,0.5064,0.5102,0.5109,0.5133,0.5157,0.5161,0.5189,0.5208,0.521,0.5234,0.5214,0.5222,0.5246,0.5275,0.5233,0.522,0.5214,0.5292,0.5293,0.5294,0.5294,0,0,0.4938,0.499,0.4987,0.5,0.5037,0.5044,0.5046,0.5066,0.5069,0.5091,0.5092,0.5109,0.513,0.5143,0.5169,0.5165,0.5129,0.5189,0.519,0.5175,0.5105,0.5086,0.5078,0.5147,0.5146,0.5145,0.5102,0,0.4897,0.4904,0.4939,0.4935,0.4943,0.4985,0.4986,0.5008,0.503,0.5039,0.5064,0.5074,0.5103,0.5111,0.5108,0.5134,0.5115,0.5138,0.5146,0.5146,0.5136,0.5072,0.5051,0.5009,0.5097,0.5097,0.5096,0,0.4852,0.487,0.4866,0.4901,0.4905,0.4906,0.4926,0.4935,0.4959,0.4976,0.499,0.5019,0.5022,0.505,0.5054,0.5068,0.5074,0.5087,0.5086,0.5086,0.5117,0.5068,0.4997,0.499,0.5088,0.5089,0.509,0,0.4791,0.4814,0.4815,0.4825,0.4867,0.4866,0.4883,0.4909,0.4918,0.4935,0.4941,0.4958,0.4966,0.4978,0.5011,0.5029,0.5009,0.5041,0.5021,0.502,0.5013,0.5013,0.494,0.5021,0.5021,0.5021,0.5021,0,0.4741,0.4736,0.4788,0.4787,0.4783,0.4823,0.4817,0.4838,0.4861,0.4865,0.4903,0.4905,0.4949,0.4956,0.4981,0.4979,0.4983,0.4995,0.5001,0.499,0.4988,0.4993,0.4996,0.5019,0.502,0.502,0.502,0,0.4671,0.4706,0.4709,0.4747,0.4757,0.4752,0.4784,0.4785,0.481,0.4814,0.4817,0.4855,0.4865,0.4899,0.4918,0.4935,0.4923,0.4937,0.4915,0.4919,0.4896,0.4896,0.4821,0.4812,0.4901,0.49,0.4899,0,0.4636,0.4634,0.4672,0.4677,0.4693,0.4701,0.471,0.4749,0.4757,0.4784,0.4781,0.4794,0.4807,0.4821,0.4849,0.4863,0.4876,0.4849,0.4878,0.4867,0.4873,0.4871,0.487,0.4842,0.4841,0.484,0.4839,0,0.457,0.4587,0.4599,0.4616,0.4626,0.4641,0.4659,0.4661,0.4704,0.4711,0.4722,0.4731,0.475,0.4761,0.478,0.4796,0.4823,0.483,0.4825,0.4813,0.4799,0.4803,0.4895,0.4831,0.4831,0.4832,0.4833,0.4833,0.4515,0.4514,0.454,0.4552,0.4569,0.4584,0.4586,0.4611,0.4621,0.4639,0.4662,0.4669,0.4693,0.472,0.4734,0.474,0.4755,0.4749,0.4747,0.4745,0.4738,0.48,0.4744,0.4744,0.4744,0.4744,0.4745,0,0.4448,0.4467,0.4477,0.4501,0.4509,0.4536,0.4556,0.4561,0.4567,0.4587,0.4599,0.461,0.4621,0.4651,0.4665,0.4663,0.4676,0.4665,0.4664,0.4667,0.4725,0.4726,0.4654,0.4654,0.4654,0.4654,0.4654,0.4654,0.4414,0.4413,0.4433,0.444,0.4459,0.4466,0.4476,0.4489,0.4505,0.4516,0.4526,0.4545,0.4568,0.4584,0.4595,0.4603,0.4605,0.459,0.4602,0.4655,0.4663,0.4671,0.4673,0.459,0.459,0.4543,0.4542,0.4542]}]]